TimeEST,TemperatureF,Dew PointF,Humidity,Sea Level PressureIn,VisibilityMPH,Wind Direction,Wind SpeedMPH,Gust SpeedMPH,PrecipitationIn,Events,Conditions,WindDirDegrees,DateUTC
12:54 AM,43.0,39.0,86,30.07,10.0,NNW,5.8,-,N/A,,Overcast,330,2012-12-09 05:54:00
1:02 AM,42.8,39.2,87,30.04,10.0,NNW,6.9,-,N/A,,Overcast,330,2012-12-09 06:02:00
1:14 AM,42.8,39.2,87,30.04,10.0,North,4.6,-,N/A,,Overcast,350,2012-12-09 06:14:00
1:26 AM,42.8,39.2,87,30.04,10.0,North,3.5,-,N/A,,Overcast,360,2012-12-09 06:26:00
1:54 AM,41.0,39.0,93,30.06,10.0,North,4.6,-,N/A,,Overcast,10,2012-12-09 06:54:00
2:54 AM,41.0,37.9,89,30.08,10.0,North,8.1,-,N/A,,Overcast,350,2012-12-09 07:54:00
3:54 AM,39.9,37.9,93,30.09,10.0,NE,3.5,-,N/A,,Overcast,40,2012-12-09 08:54:00
4:40 AM,39.2,37.4,93,30.07,10.0,NE,8.1,-,N/A,,Overcast,50,2012-12-09 09:40:00
4:54 AM,39.0,36.0,89,30.10,10.0,NE,6.9,-,N/A,,Overcast,50,2012-12-09 09:54:00
5:54 AM,37.9,36.0,93,30.11,10.0,ENE,4.6,-,N/A,,Overcast,70,2012-12-09 10:54:00
6:54 AM,37.9,36.0,93,30.13,10.0,ENE,6.9,-,0.00,Rain,Light Rain,60,2012-12-09 11:54:00
7:40 AM,37.4,37.4,100,30.10,2.0,East,4.6,-,0.04,Rain,Rain,80,2012-12-09 12:40:00
7:54 AM,37.9,37.0,97,30.13,2.5,ENE,6.9,-,0.06,Rain,Rain,70,2012-12-09 12:54:00
7:58 AM,37.4,37.4,100,30.09,1.8,East,8.1,-,0.01,Rain,Light Rain,80,2012-12-09 12:58:00
8:00 AM,37.4,37.4,100,30.09,1.8,East,8.1,-,0.01,Rain,Light Rain,80,2012-12-09 13:00:00
8:25 AM,37.4,37.4,100,30.10,0.8,East,4.6,-,0.01,Rain,Light Rain,90,2012-12-09 13:25:00
8:54 AM,37.9,37.0,97,30.14,0.8,East,3.5,-,0.03,Rain,Light Rain,80,2012-12-09 13:54:00
9:04 AM,37.4,37.4,100,30.10,1.8,ESE,5.8,-,0.01,Rain,Light Rain,110,2012-12-09 14:04:00
9:12 AM,37.4,37.4,100,30.10,2.5,East,4.6,-,0.01,Rain,Light Rain,100,2012-12-09 14:12:00
9:25 AM,39.2,37.4,93,30.10,2.0,ESE,4.6,-,0.04,Rain,Rain,110,2012-12-09 14:25:00
9:49 AM,39.2,37.4,93,30.11,4.0,ESE,5.8,-,0.07,Rain,Light Rain,120,2012-12-09 14:49:00
9:54 AM,39.9,37.9,93,30.15,5.0,ESE,3.5,-,0.07,Rain,Light Rain,120,2012-12-09 14:54:00
10:54 AM,39.0,37.9,96,30.15,10.0,East,3.5,-,0.03,,Overcast,100,2012-12-09 15:54:00
11:54 AM,39.9,37.9,93,30.12,10.0,SSE,5.8,-,N/A,,Overcast,150,2012-12-09 16:54:00
12:54 PM,41.0,39.0,93,30.09,10.0,SSE,5.8,-,N/A,,Overcast,150,2012-12-09 17:54:00
1:54 PM,42.1,39.0,89,30.07,10.0,SE,12.7,-,N/A,,Overcast,140,2012-12-09 18:54:00
2:02 PM,42.8,39.2,87,30.03,10.0,SE,10.4,18.4,0.01,,Overcast,140,2012-12-09 19:02:00
2:19 PM,42.8,39.2,87,30.02,10.0,SSE,12.7,-,0.01,,Overcast,150,2012-12-09 19:19:00
2:54 PM,41.0,39.0,93,30.05,10.0,SE,11.5,18.4,0.01,,Overcast,130,2012-12-09 19:54:00
3:54 PM,41.0,37.9,89,30.05,10.0,SE,8.1,-,N/A,,Overcast,140,2012-12-09 20:54:00
4:54 PM,39.9,37.9,93,30.05,4.0,SE,8.1,17.3,0.02,Rain,Rain,140,2012-12-09 21:54:00
5:54 PM,39.9,37.9,93,30.02,10.0,SSE,6.9,16.1,0.02,,Overcast,150,2012-12-09 22:54:00
6:54 PM,39.9,37.9,93,30.01,10.0,SSE,15.0,20.7,N/A,,Overcast,160,2012-12-09 23:54:00
7:54 PM,39.9,39.0,97,30.00,6.0,SSE,10.4,-,0.00,Rain,Light Rain,160,2012-12-10 00:54:00
8:54 PM,41.0,39.9,96,29.96,8.0,South,11.5,19.6,0.02,Rain,Light Rain,170,2012-12-10 01:54:00
9:54 PM,41.0,39.9,96,29.94,10.0,South,11.5,-,0.01,Rain,Light Rain,170,2012-12-10 02:54:00
10:54 PM,41.0,39.9,96,29.92,6.0,South,9.2,-,0.03,,Overcast,170,2012-12-10 03:54:00
11:19 PM,41.0,41.0,100,29.86,1.8,South,6.9,-,0.00,Rain,Light Rain,170,2012-12-10 04:19:00
11:54 PM,42.1,41.0,96,29.88,1.0,South,13.8,-,0.00,,Mist,170,2012-12-10 04:54:00